Location: Roanoke
(37.2710°N, 79.9420°W)
Time: 05:51:01
(UTC-05:00)

S-56A Canister/Altair - Pass Details

Date: 20 November 2019
Orbit: 633 x 2500 km, 38.9° (Epoch: 08 December)

Event Time Altitude Azimuth Distance (km) Brightness Sun altitude
Rises 21:56:19 0° 286° (WNW) 3,820 11.6 -57.0°
Enters shadow 21:57:27 - 284° (WNW) 3,385 11.3 -57.2°
Reaches altitude 10° 21:59:29 10° 280° (W) 2,610 - -57.5°
Maximum altitude 22:05:00 44° 210° (SSW) 1,011 - -58.5°
Drops below altitude 10° 22:09:21 10° 137° (SE) 2,050 - -59.3°
Sets 22:11:34 0° 130° (SE) 2,913 - -59.7°
